Location: Buckeye Ditch
(40.9104°N, 122.9517°W)
Time: 15:30:51
(UTC+00:00)

Transit 2A - Pass Details

Date: 26 May 2025
Orbit: 599 x 947 km, 66.7° (Epoch: 15 June)

Event Time Altitude Azimuth Distance (km) Brightness Sun altitude
Rises 22:04:44 0° 333° (NNW) 2,898 9.0 58.7°
Reaches altitude 10° 22:06:58 10° 338° (NNW) 2,017 8.3 58.3°
Maximum altitude 22:11:26 59° 58° (ENE) 770 6.5 57.5°
Drops below altitude 10° 22:16:17 10° 138° (SE) 2,178 8.4 56.7°
Sets 22:18:46 0° 142° (SE) 3,153 9.1 56.3°
